Weather in Popivka

Ukraine / Poltava Region     50°05′46″N   33°38′03″E
temp.,
°C
wind,
m/s
gust,
m/s
humid.,
%
clouds,
%
prec.,
mm/h
press.,
hPa
HPBL,
m
17 may, mon
mon1700:00+16ne41184100 0.6 1007196
03:00+15ne3894100 4.4 1005186
06:00+16ene51193100 0.1 1003281
09:00+18ese5982100 0.3 1003404
12:00+23se4560100 0.4 1002922
15:00+22sse5974100 0.6 10021024
18:00+22s59800 0.3 1002723
21:00+17s499451 1.4 1004234
18 may, tue
tue1800:00+16sse3109520 0.0 1004217
03:00+14sse3797100 0.0 1004164
06:00+14s3698100 0.0 1005213
09:00+17s4585100 0.0 1005481
12:00+18s5681100 2.1 1005479
15:00+20sse676842 5.3 10041345
18:00+18s6107997 2.8 1004643
21:00+14sse4993100 3.3 1004361
19 may, wed
wed1900:00+13se4997100 0.1 1003316
03:00+12sse489721 0.3 1003320
06:00+11sse4898100 0.0 1004511
09:00+13sse5783100 0.1 1004813
12:00+17sse686795 0.2 10041451
15:00+18se466758 2.1 10041138
18:00+17s237231 3.1 1004864
21:00+13sw34870 4.9 100548
20 may, thu
thu2000:00+11wsw5109796 0.0 1006413
03:00+12wsw61194100 0.1 1008609
06:00+11wsw61093100 0.0 1009672
09:00+14wsw7107918 0.0 1011824
12:00+18wsw79614 0.0 10121479
15:00+20wsw685476 0.0 10131783
18:00+19sw2466100 0.1 1013496
21:00+14wnw2497100 2.2 1015144
21 may, fri
fri2100:00+14sse2395100 0.1 101578
03:00+14s239392 0.1 101571
06:00+14se229181 0.0 101547
09:00+17sse467298 0.0 1016402
12:00+21se685493 0.0 10151366
15:00+22sse685217 0.0 10141647
18:00+23se3663100 0.0 1013709
21:00+19se358070 0.0 101384